Flag for Iceland Weather past 2 weeks in Reykjavik, Iceland

Now
55 °F

Partly sunny.


Feels Like: 53 °F
Forecast: N/A
Wind: 9 mph from Northwest

Location: Reykjavik Airport

Current Time: Jul 26, 2014 at 5:50:59 PM

Latest Report: Jul 26, 2014 at 5:00 PM


Visibility: N/A

Pressure: 30.09 "Hg

Humidity: 77%

Dew point: 48 °F

Location of ReykjavikLocation

Historic Weather in Reykjavik — Graph

°F

Reykjavik temperature yesterday

Maximum temperature yesterday: 59 °F (at 1:00 PM)
Minimum temperature yesterday: 52 °F (at 2:00 AM)
Average temperature yesterday: 54 °F

Past Weeks' High & Low Weather Summary

 TemperatureHumidityPressure
High63 °F (Jul 22, 2:00 PM)94% (Jul 14, 4:00 AM)30.09 "Hg (Jul 14, 4:00 AM)
Low48 °F (Jul 15, 1:00 AM)56% (Jul 22, 3:00 PM)29.42 "Hg (Jul 11, 4:00 PM)
Average55 °F80%29.78 "Hg
* Reported Jul 11 4:00 PM — Jul 26 4:00 PM, Reykjavik, Weather by CustomWeather, © 2014

Note: Actual official high and low records may vary slightly from our data, if they occured in-between our weather recording intervals... More about our weather records

Advertising

Reykjavik weather history for previous 24 hours

 ConditionsComfort  
Time TempWeatherWind HumidityBarometerVisibility
4:00 PM
Jul 26
55 °FBroken clouds.8 mph77%30.09 "HgN/A
3:00 PM57 °FBroken clouds.9 mph72%30.09 "HgN/A
2:00 PM55 °FBroken clouds.9 mph82%30.09 "HgN/A
1:00 PM55 °FBroken clouds.7 mph77%30.09 "HgN/A
12:00 PM55 °FBroken clouds.8 mph82%30.09 "HgN/A
11:00 AM55 °FBroken clouds.8 mph82%30.07 "HgN/A
10:00 AM54 °FBroken clouds.7 mph88%30.07 "HgN/A
9:00 AM54 °FMostly cloudy.7 mph88%30.07 "HgN/A
8:00 AM54 °FBroken clouds.7 mph88%30.07 "HgN/A
7:00 AM54 °FDrizzle. Broken clouds.3 mph88%30.07 "HgN/A
6:00 AM54 °FMixture of precip. Fog.5 mph88%30.07 "Hg4 mi
5:00 AM54 °FScattered showers. Mostly cloudy.7 mph88%30.07 "HgN/A
4:00 AM54 °FPassing clouds.6 mph88%30.07 "HgN/A
3:00 AM54 °FScattered showers. Mostly cloudy.3 mph88%30.07 "HgN/A
2:00 AM54 °FPartly cloudy.8 mph82%30.07 "HgN/A
1:00 AM54 °FMostly cloudy.6 mph88%30.07 "HgN/A
12:00 AM54 °FScattered showers. Mostly cloudy.1 mph88%30.07 "HgN/A
11:00 PM
Jul 25
54 °FScattered showers. Passing clouds.2 mph88%30.07 "HgN/A
10:00 PM54 °FLight rain. Mostly cloudy.3 mph94%30.07 "Hg4 mi
9:00 PM54 °FRain. Mostly cloudy.No wind88%30.04 "Hg3 mi
8:00 PM54 °FLight rain. Mostly cloudy.5 mph88%30.04 "Hg3 mi
7:00 PM55 °FLight rain. Broken clouds.5 mph82%30.04 "HgN/A
6:00 PM55 °FScattered showers. Broken clouds.6 mph82%30.04 "HgN/A
5:00 PM55 °FBroken clouds.5 mph88%30.04 "HgN/A
Weather by CustomWeather, © 2014

See weather overviewHow to use our weather pages